Погода в Будукане

Россия / Еврейская автономная область     49°00′58″N   132°13′55″E
темп.,
°C
ветер,
м/с
пор.,
м/с
влажн.,
%
обл.,
%
осадки,
мм/ч
давл.,
гПа
погр.,
м
21 июня, пн
пн2101:00+10с118758 0.0 100811
04:00+10сз117471 0.0 100812
07:00+14сз116453 0.0 100956
10:00+22юв02380 0.0 1008791
13:00+25юв23294 0.0 10072299
16:00+26юв33295 0.0 10062371
19:00+23юв344865 0.0 1007531
22:00+14зюз118645 0.0 100911
22 июня, вт
вт2201:00+12ссз119120 0.0 101011
04:00+11сз119145 0.0 101010
07:00+15з11775 0.0 101073
10:00+23з125239 0.0 1010601
13:00+27юз223421 0.0 10081831
16:00+23св235037 0.1 1008902
19:00+25с125427 0.0 1008214
22:00+16с118259 0.0 100913
23 июня, ср
ср2301:00+14сз11845 0.0 100911
04:00+13з118413 0.0 100911
07:00+16з117465 0.0 100978
10:00+23з244911 0.0 1008696
13:00+27зюз343784 0.0 10072197
16:00+23зсз1357100 0.0 1006511
19:00+18ююв3494100 1.6 1007128
22:00+16с1198100 2.4 100813
24 июня, чт
чт2401:00+15зсз219860 0.0 100826
04:00+14сз119719 0.0 100711
07:00+16зсз019518 0.0 100858
10:00+23ююз116233 0.0 1007605
13:00+28зюз234349 0.0 10051892
16:00+23ссв0266100 0.2 100489
19:00+20юв1190100 2.4 100437
22:00+17св119610 3.1 100411
25 июня, пт
пт2501:00+16зсз119721 1.4 100412
04:00+15з2198100 1.4 100422
07:00+16з1297100 0.0 100588
10:00+22з246554 0.0 1004640
13:00+28зюз354443 0.0 10021665
16:00+29з574091 0.0 10001866
19:00+28зсз14519 0.0 1000571
22:00+18ююв019418 0.8 100211